Flag for Germany Weather past 2 weeks in Bornheim (Rheinland), North Rhine-Westphalia, Germany

Now
54 °F

Passing clouds.


Feels Like: 54 °F
Forecast: 52 / 71 °F
Wind: 1 mph from South

Location: Bonn-Hangelar

Current Time: Sep 2, 2014 at 6:26:46 AM

Latest Report: Sep 2, 2014 at 6:00 AM


Visibility: 13 mi

Pressure: 30.15 "Hg

Humidity: 87%

Dew point: 50 °F

Location of Bornheim (Rheinland)Location

Historic Weather in Bornheim (Rheinland) — Graph

°F

Bornheim (Rheinland) temperature yesterday

Maximum temperature yesterday: 64 °F (at 4:00 PM)
Minimum temperature yesterday: 53 °F (at 12:00 AM)
Average temperature yesterday: 58 °F

Past Weeks' High & Low Weather Summary

 TemperatureHumidityPressure
High70 °F (Aug 28, 6:00 PM)99% (Aug 26, 4:00 AM)30.17 "Hg (Aug 26, 4:00 AM)
Low47 °F (Aug 21, 6:00 AM)51% (Aug 22, 4:00 PM)29.61 "Hg (Aug 26, 6:00 AM)
Average57 °F82%29.96 "Hg
* Reported Aug 18 5:00 AM — Sep 2 5:00 AM, Bornheim (Rheinland), Weather by CustomWeather, © 2014

Note: Actual official high and low records may vary slightly from our data, if they occured in-between our weather recording intervals... More about our weather records

Advertising

Bornheim (Rheinland) weather history for previous 24 hours

 ConditionsComfort  
Time TempWeatherWind HumidityBarometerVisibility
5:00 AM
Sep 2
55 °FOvercast.2 mph87%30.16 "Hg12 mi
4:00 AM57 °FOvercast.1 mph85%30.15 "Hg12 mi
3:00 AM56 °FOvercast.1 mph83%30.16 "Hg16 mi
2:00 AM57 °FOvercast.1 mph83%30.16 "Hg16 mi
1:00 AM58 °FPassing clouds.2 mph79%30.16 "Hg19 mi
12:00 AM57 °FOvercast.2 mph82%30.16 "Hg16 mi
11:00 PM
Sep 1
57 °FPassing clouds.2 mph81%30.16 "Hg17 mi
10:00 PM58 °FOvercast.2 mph80%30.15 "Hg18 mi
9:00 PM60 °FOvercast.1 mph78%30.15 "Hg22 mi
8:00 PM62 °FOvercast.2 mph75%30.14 "Hg22 mi
7:00 PM64 °FOvercast.1 mph62%30.14 "Hg28 mi
6:00 PM64 °FOvercast.2 mph63%30.14 "Hg22 mi
5:00 PM64 °FPartly sunny.3 mph63%30.14 "Hg25 mi
4:00 PM64 °FScattered clouds.3 mph65%30.14 "Hg25 mi
3:00 PM64 °FScattered clouds.5 mph66%30.15 "Hg25 mi
2:00 PM63 °FScattered clouds.5 mph62%30.16 "Hg22 mi
1:00 PM60 °FPartly sunny.5 mph76%30.17 "Hg19 mi
12:00 PM59 °FPartly sunny.2 mph81%30.17 "Hg19 mi
11:00 AM57 °FScattered clouds.3 mph84%30.17 "Hg11 mi
10:00 AM55 °FFog.3 mph97%30.16 "Hg4 mi
9:00 AM54 °FFog.2 mph99%30.15 "Hg2 mi
8:00 AM54 °FFog.3 mph99%30.14 "Hg0 mi
7:00 AM53 °FFog.2 mph99%30.14 "Hg1 mi
6:00 AM53 °FFog.3 mph98%30.14 "Hg0 mi
Weather by CustomWeather, © 2014

See weather overviewHow to use our weather pages